Regional Weather Roundup
Issued by NWS Cleveland, OH

Home | Current Version | Previous Version | Text Only | Print | Product List | Glossary On
Versions: 1 2 3 4 5 6 7 8 9 10 11 12 13 14 15 16 17 18 19 20 21 22 23 24 25 26 27 28 29 30 31 32 33 34 35 36 37 38 39 40 41 42 43 44 45 46 47 48 49 50
000
ASUS41 KCLE 070302
RWRCLE
OHIO REGIONAL WEATHER ROUNDUP
NATIONAL WEATHER SERVICE CLEVELAND, OH
1000 PM EST SAT MAR 06 2021

NOTE: "FAIR" INDICATES FEW OR NO CLOUDS BELOW 12,000 FEET WITH NO
SIGNIFICANT WEATHER AND/OR OBSTRUCTIONS TO VISIBILITY.

OHZ001>008-015>018-024>027-034-035-043-044-070400-
   NORTHWEST OHIO

CITY           SKY/WX    TMP DP  RH WIND       PRES   REMARKS
DEFIANCE       CLEAR     31  18  58 NW7       30.29R WCI  24
FINDLAY        CLEAR     34  19  54 NW9       30.25R WCI  27
TOLEDO EXPRESS PTCLDY    34  19  54 NW8       30.27R WCI  27
TOLEDO EXEC    CLOUDY    32  17  54 NW7       30.27R WCI  26
LIMA           CLEAR     31  17  56 NW7       30.26S WCI  24
$$

OHZ009>014-019>023-028>033-038-089-070400-
   NORTHEAST OHIO

CITY           SKY/WX    TMP DP  RH WIND       PRES   REMARKS
CLE-HOPKINS    CLEAR     26  17  68 S5        30.25R WCI  20
CLE-LAKEFRONT  CLEAR     32  19  58 CALM      30.26S
CUY CO. ARPT   CLEAR     19  14  79 CALM      30.26R
LORAIN-ELYRIA  PTCLDY    26  17  68 E5        30.26S WCI  20
ASHTABULA      CLEAR     24  16  71 CALM      30.27S
AKRON-CANTON   CLEAR     27  13  55 E3        30.24S
WOOSTER        PTCLDY    25  18  74 CALM      30.25S
MANSFIELD      PTCLDY    27  17  66 SE6       30.23S WCI  20
YOUNGSTOWN     CLEAR     24  12  60 N3        30.25R
$$

OHZ042-051>053-060>062-070>072-077>081-070400-
  SOUTHWEST OHIO

CITY           SKY/WX    TMP DP  RH WIND       PRES   REMARKS
CINC-COVINGTON CLEAR     37  15  40 CALM      30.29S
CINC-LUNKEN    CLEAR     33  25  72 CALM      30.31S
HAMILTON       CLEAR     27  18  69 CALM      30.30F
DAYTON         CLEAR     30  15  53 W6        30.27S WCI  24
WRIGHT-PAT AFB NOT AVBL
DAYTON GENERAL CLEAR     35  17  47 CALM      30.27S
WILMINGTON     CLEAR     35  16  45 NW5       30.27S
$$

OHZ036-037-039>041-045>050-054>059-063>069-073>076-082>088-070400-
  CENTRAL AND SOUTHEAST OHIO

CITY           SKY/WX    TMP DP  RH WIND       PRES   REMARKS
COLUMBUS       CLEAR     34  16  47 CALM      30.26S
OSU AIRPORT    CLEAR     34  17  50 W5        30.25F WCI  30
BOLTON FIELD   CLEAR     32  16  51 W5        30.27S WCI  28
RICKENBACK AFB CLEAR     29  16  57 SW6       30.26F WCI  23
NEWARK         CLEAR     26  18  71 CALM      30.25S
MARION         CLOUDY    31  20  63 SW6       30.24F WCI  25
LANCASTER      CLEAR     23  17  78 CALM      30.27S
ZANESVILLE     CLEAR     28  14  55 CALM      30.25F
NEW PHILLY     NOT AVBL
$$



USA.gov is the U.S. government's official web portal to all federal, state and local government web resources and services.